User: anonymous   Login
Location: Newark
(44.6394°N, 22.2943°E)
Time: 05:36:20
(UTC+00:00)
Language:

CAS-4B - Orbit

View from above orbital plane
View from above orbital plane
View from above satellite
View from above satellite

Ground track
Ground track

The orbit data is extracted from the following two-line orbital elements,

1 42759U 17034B   23338.87121197  .00011523  00000-0  51179-3 0  9995
2 42759  43.0131 244.2673 0010352 140.7308 219.4294 15.21499230357599
Epoch (UTC): 04 December 2023 20:54:32
Eccentricity: 0.0010352
inclination: 43.0131°
perigee height: 494 km
apogee height: 508 km
right ascension of ascending node: 244.2673°
argument of perigee: 140.7308°
revolutions per day: 15.21499230
mean anomaly at epoch: 219.4294°
orbit number at epoch: 35759

The dashed part of the orbit path shows where the satellite is in the earth's shadow,  

DLR